www.pogodaiklimat.ru
Время
и дата
02:53 30.12
03:53 30.12
04:53 30.12
05:53 30.12
06:53 30.12
07:53 30.12
08:53 30.12
09:53 30.12
10:53 30.12
11:53 30.12
12:53 30.12
13:53 30.12
14:53 30.12
15:49 30.12
15:53 30.12
16:49 30.12
16:53 30.12
17:53 30.12
18:53 30.12
19:53 30.12
20:53 30.12
21:51 30.12
21:53 30.12
22:53 30.12
23:29 30.12
23:48 30.12
23:53 30.12
00:53 31.12
01:35 31.12
01:53 31.12
02:34 31.12
02:53 31.12
03:18 31.12
03:44 31.12
03:53 31.12
04:35 31.12
04:53 31.12
05:53 31.12
06:53 31.12
07:27 31.12
07:53 31.12
08:03 31.12
08:53 31.12
09:53 31.12
10:53 31.12
11:53 31.12
12:53 31.12
13:53 31.12
Ветер
(напр.,м/с)
Видим. Явления Облачность Т
(С)
Тd
(С)
f
(%)
Тe
(С)
Тes
(С)
Комфортность P
(гПа)
Po
(гПа)
Тmin
(С)
Tmax
(С)
R
(мм)
R24
(мм)
S
(см)
штиль 0 16 км 2/2 300 м -32.2 -34.4 81 -32 -32 опасность
обморожения
1025.7 1023.7 -32.2 -28.3
штиль 0 16 км ясно -29.4 -32.8 72 -29 -29 1026.2 1024.4
штиль 0 16 км ясно -29.4 -33.9 65 -29 -29 1026.6 1024.7
СВ 1 16 км ясно -30.0 -33.3 73 -37 -37 опасность
обморожения
1027.0 1025.1
СВ 1 14 км ясно -30.6 -33.9 73 -40 -40 опасность
обморожения
1027.5 1025.7
СВ 1 10 км мгла ясно -28.9 -32.2 73 -36 -36 опасность
обморожения
1027.8 1026.1
СВ 1 16 км ясно -30.0 -33.3 73 -40 -40 опасность
обморожения
1028.4 1026.4 -33.3 -28.9
СВ 1 16 км ясно -30.0 -33.3 73 -37 -37 опасность
обморожения
1029.0 1027.1
СВ 1 10 км мгла ясно -30.0 -33.3 73 -40 -40 опасность
обморожения
1029.5 1027.4
СВ 1 13 км ясно -29.4 -33.3 69 -39 -39 опасность
обморожения
1029.8 1027.8
СВ 1 16 км ясно -30.0 -33.3 73 -40 -40 опасность
обморожения
1030.1 1028.1
СВ 1 10 км мгла ясно -29.4 -32.8 72 -37 -37 опасность
обморожения
1030.4 1028.4
С 1 11 км ясно -29.4 -32.8 72 -39 -39 опасность
обморожения
1030.5 1028.4 -30.6 -28.9
СВ 1 8 км мгла 2/2 90 м -29.0 -32.0 75 -38 -38 опасность
обморожения
1028.8
СВ 1 10 км мгла ясно -28.9 -32.2 73 -38 -38 опасность
обморожения
1030.5 1028.4
СВ 1 6 км мгла 2/2 180 м -29.0 -33.0 68 -38 -38 опасность
обморожения
1028.8
СВ 1 10 км мгла ясно -29.4 -32.8 72 -39 -39 опасность
обморожения
1030.7 1028.8
СВ 2 11 км ясно -29.4 -32.8 72 -40 -40 опасность
обморожения
1030.4 1028.4
СВ 1 13 км ясно -29.4 -32.8 72 -39 -39 опасность
обморожения
1030.5 1028.4
СВ 2 14 км ясно -29.4 -32.8 72 -40 -40 опасность
обморожения
1030.5 1028.8
СВ 2 13 км ясно -28.9 -32.8 69 -40 -40 опасность
обморожения
1030.3 1028.4 -29.4 -28.9
СВ 1 14 км 8/8 510 м -29.0 -32.0 75 -36 -36 опасность
обморожения
1028.8
СВ 1 14 км 8/8 510 м -28.9 -32.2 73 -38 -38 опасность
обморожения
1030.6 1028.8
С 2 13 км 10/10 450 м -28.3 -32.2 69 -39 -39 опасность
обморожения
1030.6 1028.8
С 2 11 км 8/8 420 м -28.3 -31.7 72 -39 -39 опасность
обморожения
1028.4
С 2 13 км 2/2 420 м -28.0 -32.0 68 -39 -39 опасность
обморожения
1028.8
С 2 13 км 5/5 420 м -28.3 -31.7 72 -39 -39 опасность
обморожения
1030.7 1028.8
С 1 14 км ясно -28.9 -32.2 73 -38 -38 опасность
обморожения
1030.7 1028.8
С 1 14 км 8/8 450 м -28.9 -32.2 73 -38 -38 опасность
обморожения
1028.8
С 1 11 км 10/10 450 м -28.9 -32.2 73 -38 -38 опасность
обморожения
1030.7 1028.8
С 1 11 км 10/10 420 м -28.9 -32.2 73 -38 -38 опасность
обморожения
1028.8
СВ 1 11 км 10/10 420 м -28.9 -32.2 73 -38 -38 опасность
обморожения
1030.5 1028.8 -29.4 -28.3
С 1 13 км 5/5 390 м -28.9 -32.2 73 -38 -38 опасность
обморожения
1028.4
С 1 11 км 8/8 390 м -28.9 -32.2 73 -38 -38 опасность
обморожения
1028.4
С 1 10 км мгла 10/10 390 м -28.9 -32.2 73 -38 -38 опасность
обморожения
1030.4 1028.4
СВ 2 13 км 5/5 390 м -28.3 -31.7 72 -39 -39 опасность
обморожения
1028.1
СВ 2 16 км ясно -28.3 -32.2 69 -39 -39 опасность
обморожения
1030.1 1028.1
СВ 1 16 км ясно -28.9 -32.8 69 -38 -38 опасность
обморожения
1030.0 1028.1
С 1 10 км мгла ясно -28.9 -32.2 73 -38 -38 опасность
обморожения
1029.7 1027.8
С 1 10 км мгла 8/8 210 м -29.4 -32.2 77 -37 -37 опасность
обморожения
1027.8
штиль 0 10 км мгла 8/8 210 м -29.4 -32.8 72 -29 -29 1029.7 1027.8
С 1 10 км мгла 5/5 240 м -29.4 -33.3 69 -37 -37 опасность
обморожения
1027.8
С 1 10 км мгла 5/5 210 м -29.4 -32.8 72 -39 -39 опасность
обморожения
1029.4 1027.4 -30.0 -28.3
С 1 14 км 2/2 240 м -28.3 -32.2 69 -38 -38 опасность
обморожения
1029.2 1027.4
СЗ 1 14 км 10/10 1500 м -28.3 -31.7 72 -36 -36 опасность
обморожения
1028.8 1027.1
С 1 13 км 5/5 570 м -27.2 -31.1 69 -36 -36 опасность
обморожения
1028.8 1026.7
СЗ 2 10 км мгла 10/10 1500 м -26.1 -29.4 74 -36 -36 опасность
обморожения
1028.7 1026.7
СЗ 2 11 км 10/10 1290 м -25.0 -28.9 70 -35 -35 опасность
обморожения
1028.6 1026.7
Местоположение метеостанции Wiley Post-Will Rogers Memorial Airport: широта 71.2853 долгота -156.7658 высота над уровнем моря 13 м.
В архиве по умолчанию представлена погода в Барроу за последние 1-2 суток. Обновление информации о фактической погоде в базе происходит ежечасно! Архивные данные за месяц целиком и за предыдущие месяцы Вы можете получить, выбрав интересующий диапазон дат из раскрывающегося списка и нажав кнопку "Ввод!".
Внимание! Архив погоды МЕТАР в базе сайта по станциям, не включенным в климатический монитор, хранится не более 60 дней. Нет смысла пытаться выбрать более раннюю дату.
*Определитесь, кто Вы:
Внимание! Время в таблицах - местное (без учета летнего времени). Для получения всемирного времени необходимо вычесть поправку, которая равна -9 ч.
Смотрите также архив погоды в соседних городах и на ближайших метеорологических станциях:
Партнеры нашего сайта:      
Пояснения к столбцам:
  • Ветер - указаны скорость ветра в м/с - средняя за 10 мин, порывы в срок и между сроками (в фигурных скобках) и направление, откуда дует ветер: С - северный,
  • СВ - северо-восточный, В - восточный, ЮВ - юго-восточный, Ю - южный, ЮЗ - юго-западный, З - западный, СЗ - северо-западный.
  • Видимость - горизонтальная дальность видимости в метрах или километрах. При видимости от 1 до 10 км при отсутствии осадков обычно наблюдается дымка, при ухудшении видимости до 1 км и менее - туман. В сухую погоду видимость может ухудшаться дымом, пылью или мглою.
  • Явления - указаны атмосферные явления, наблюдавшиеся в срок или в последний час перед сроком; фигурными скобками обозначены явления, наблюдавшиеся между сроками (за 1-3 часа до срока); квадратными скобками обозначены град или гололедные отложения с указанием их диаметра в мм.
  • Облачность - указаны через наклонную черту общая и нижняя облачность в баллах и высота нижней границы облаков в метрах; квадратными скобками обозначены формы облаков: Ci - перистые, Cs - перисто-слоистые, Cc - перисто-кучевые, Ac - высококучевые, As - высокослоистые, Sc - слоисто-кучевые, Ns - слоисто-дождевые, Cu - кучевые, Cb - кучево-дождевые. Подробнее классификацию облаков см. в Атласе облаков (PDF).
  • T - Температура воздуха - температура, измеренная на высоте 2 м над землей.
  • Td - Температура точки росы - температура, при понижении до которой содержащийся в воздухе водяной пар достигнет насыщения.
  • f - Относительная влажность воздуха - влажноcть воздуха, измеренная на высоте 2 м над землей.
  • Te - Эффективная температура - температура, которую ощущает одетый по сезону человек в тени. Характеристика душности погоды. При расчете учитывается влияние влажности воздуха и скорости ветра на теплоощущения человека.
  • Tes - Эффективная температура на солнце - температура, которую ощущает человек, с поправкой на солнечный нагрев. Характеристика знойности погоды. Зависит от высоты солнца над горизонтом, облачности и скорости ветра. Ночью, в пасмурную погоду, а также при ветре 12 м/с и более поправка равна нулю.
  • P - Атмосферное давление - приведенное к уровню моря атмосферное давление.
  • Po - Атмосферное давление - измеренное на уровне метеостанции атмосферное давление.
  • Tmin - Минимальная температура - минимум температуры воздуха на высоте 2 м над землей.
  • Tmax - Максимальная температура - максимум температуры воздуха на высоте 2 м над землей.
  • R - Количество осадков - Количество выпавших осадков за период времени, мм. При наведении курсора мыши на число - период времени, за который выпало указанное количество осадков.
  • R24 - Количество осадков - Количество выпавших осадков за 24 часа, мм.
  • S - Снежный покров - Высота снежного покрова, см. При наведении курсора мыши на число - состояние снежного покрова и степень покрытия местности в баллах.